#timestamp,LO_Frequency,Hit,StdDev 
1567652415.6,286047002.5,N
1567652435.4,286047002.7,N
1567652455.3,286047002.6,N
1567652475.1,286047002.0,N
1567652495.8,286047004.3,Y
1567652515.7,286046999.8,P
1567652535.6,286047001.6,N
1567652555.4,286047002.3,N
1567652575.2,286047002.3,N
1567652595.1,286047001.5,N
1567652596.0,286047001.5,N
1567652615.8,286047001.7,N
1567652635.7,286047002.2,N
1567652655.5,286047001.7,N
1567652675.3,286047002.1,Y
1567652695.2,286047000.6,P
1567652715.0,286047000.1,N
1567652715.9,286047000.1,N
1567652735.8,286047002.6,Y
1567652755.6,286047000.1,P
1567652775.4,286047000.2,N
1567652795.3,286047000.4,N
1567652815.1,286047000.0,N
1567652835.8,286046999.9,N
1567652855.7,286047000.0,N
1567652875.5,286047000.1,N
1567652895.4,286047000.1,N
1567652915.2,286047002.3,Y
1567652935.0,286047002.6,P
1567652935.9,286047002.6,N
1567652955.8,286047002.8,N
1567652975.6,286046999.8,N
1567652995.5,286046999.7,N
1567653015.3,286047000.7,N
1567653035.1,286047001.0,N
1567653055.9,286047000.5,N
1567653075.7,286046999.9,N
1567653095.5,286047002.1,N
1567653115.4,286047000.0,N
1567653135.2,286047000.0,N
1567653155.1,286047000.2,N
1567653156.0,286047000.2,N
1567653175.8,286047000.2,N
1567653195.6,286047002.8,N
1567653215.5,286046999.9,N
1567653235.3,286047000.0,N
1567653255.2,286047000.1,N
1567653275.9,286047002.1,N
1567653295.7,286047002.0,N
1567653315.6,286047001.8,N
1567653335.4,286047001.9,N
1567653355.2,286046999.8,N
1567653375.1,286047002.4,N
1567653376.0,286047002.4,N
1567653395.8,286047002.0,N
1567653415.7,286047002.3,N
1567653435.5,286047000.2,N
1567653455.3,286047002.8,N
1567653475.2,286047000.4,N
1567653495.0,286046999.8,N
1567653495.9,286046999.8,N
1567653515.8,286047002.6,N
1567653535.6,286047002.6,N
1567653555.4,286046999.7,N
1567653575.3,286046999.9,N
1567653595.1,286047000.3,N
1567653615.8,286047000.3,N
1567653635.7,286047000.5,N
1567653655.5,286047000.5,N
1567653675.4,286047000.2,N
1567653695.2,286047002.4,N
1567653715.0,286046999.8,N
1567653715.9,286046999.8,N
1567653735.8,286047002.3,N
1567653755.6,286047002.0,N
1567653775.4,286047002.6,N
1567653795.3,286047002.7,N
1567653815.1,286047002.2,N
1567653835.9,286047001.7,N
1567653855.7,286047002.2,N
1567653875.5,286047002.2,N
1567653895.4,286047000.9,N
1567653915.2,286047000.0,N
1567653935.0,286047000.5,N
1567653935.9,286047000.5,N
1567653955.8,286047000.6,N
1567653975.6,286047000.3,N
1567653995.5,286047000.9,N
1567654015.3,286047000.8,N
1567654035.1,286047000.1,N
1567654055.9,286047001.0,N
1567654075.7,286047000.2,N
1567654095.6,286047000.1,N
1567654115.4,286046999.9,N
1567654135.2,286047000.5,N
1567654155.1,286047000.4,N
1567654156.0,286047000.4,N
1567654175.8,286047001.2,N
1567654195.6,286046998.2,N
1567654215.5,286047001.2,N
1567654235.3,286046999.0,N
1567654255.2,286046997.4,N
1567654275.0,286046997.0,N
1567654275.9,286046997.0,N
1567654295.7,286046996.6,N
1567654315.6,286046999.0,N
1567654335.4,286046999.2,N
1567654355.3,286046999.6,N
1567654375.1,286046999.6,N
1567654376.0,286046999.6,N
1567654395.8,286046999.5,N
1567654415.7,286046997.6,N
1567654435.5,286046996.1,Y
1567654455.4,286046997.7,P
1567654475.2,286046997.6,N
1567654495.0,286046997.8,N
1567654495.9,286046997.8,N
1567654515.8,286046996.8,Y
1567654535.6,286047000.9,P
1567654555.5,286047000.3,N
1567654575.3,286047000.8,N
1567654595.1,286046999.4,N
1567654615.9,286046996.5,Y
1567654635.7,286046996.5,P
1567654655.5,286046996.5,N
1567654675.4,286046996.7,N
1567654695.2,286046996.8,N
1567654715.1,286046997.1,N
1567654716.0,286046997.1,N
1567654735.8,286046997.8,N
1567654755.6,286046997.2,N
1567654775.5,286046994.9,Y
1567654795.3,286047000.8,P
1567654815.2,286046998.1,N
1567654835.9,286047000.7,N
1567654855.7,286047000.7,N
1567654875.6,286047000.9,N
1567654895.4,286047000.0,N
1567654915.2,286047000.0,N
1567654935.1,286047000.3,N
1567654936.0,286047000.3,N
1567654955.8,286047000.5,N
1567654975.7,286046999.9,N
1567654995.5,286047001.0,N
1567655015.3,286047000.5,N
1567655035.2,286047000.3,N
1567655055.0,286047000.3,N
1567655055.9,286047000.3,N
1567655075.8,286046999.9,N
1567655095.6,286047000.1,N
1567655115.4,286047002.6,N
1567655135.3,286047002.4,N
1567655155.1,286047002.4,N
1567655175.9,286046999.7,N
1567655195.7,286047000.7,N
1567655215.5,286047000.5,N
1567655235.4,286046999.7,N
1567655255.2,286047000.2,N
1567655275.0,286047000.1,N
1567655276.0,286047000.1,N
1567655295.8,286047002.7,N
1567655315.6,286047002.1,N
1567655335.5,286047002.7,N
1567655355.3,286047001.4,N
1567655375.1,286047002.6,N
1567655395.9,286047002.2,N
1567655415.7,286046999.8,N
1567655435.6,286047002.5,N
1567655455.4,286047001.6,N
1567655475.2,286047004.4,Y
1567655495.1,286047000.0,P
1567655496.0,286047000.0,N
1567655515.8,286047002.7,P
1567655535.7,286047002.7,N
1567655555.5,286046999.9,N
1567655575.3,286046999.8,N
1567655595.2,286047000.4,N
1567655615.9,286047000.2,N
1567655635.7,286047002.8,N
1567655655.6,286047002.4,N
1567655675.4,286047002.0,N
1567655695.3,286047001.9,N
1567655715.1,286047001.5,N
1567655716.0,286047001.5,N
1567655735.8,286047002.5,N
1567655755.7,286047004.4,Y
1567655775.5,286047000.3,P
1567655795.4,286047002.3,P
1567655815.2,286047002.1,N
1567655835.0,286047001.8,N
1567655835.9,286047001.8,N
1567655855.8,286047001.8,N
1567655875.6,286047001.3,N
1567655895.5,286047001.4,N
1567655915.3,286047001.7,Y
1567655935.1,286047002.4,P
1567655955.9,286047001.7,P
1567655975.7,286047002.4,P
1567655995.5,286047000.2,N
